St Catherine Internationa, Egypt

4:38 AM EET on February 24, 2018 (GMT +0200)
St Catherine Internationa

Weather History for HESC - August, 2014

Change the Weather History Date:

Friday, August 29, 2014

  Actual Average Record
Temperature  
Mean Temperature 78 °F -  
Max Temperature 91 °F - - ()
Min Temperature 64 °F - - ()
Cooling Degree Days 12    
Growing Degree Days 28 (Base 50)    
Moisture  
Dew Point 38 °F    
Average Humidity 27    
Maximum Humidity 46    
Minimum Humidity 10    
Precipitation  
Precipitation 0.00 in - - ()
Sea Level Pressure  
Sea Level Pressure 30.07 in    
Wind  
Wind Speed 5 mph ()    
Max Wind Speed 18 mph    
Max Gust Speed -    
T = Trace of Precipitation, MM = Missing Value Source: Averaged Metar Reports

Daily Weather History Graph

Daily Weather History Graph

Search for Another Location

Airport or City:

Trip Planner

Search our weather history database for the weather conditions in past years. The results will help you decide how hot, cold, wet, or windy it might be!

Date:

Astronomy

Aug. 29, 2014 Rise Set
Actual Time 6:20 AM EEST 7:08 PM EEST
Civil Twilight 5:55 AM EEST 7:33 PM EEST
Nautical Twilight 5:27 AM EEST 8:01 PM EEST
Astronomical Twilight 4:58 AM EEST 8:30 PM EEST
Moon 9:29 AM EEST (8/29) 9:16 PM EEST (8/29)
Length of Visible Light 13h 37m
Length of Day
12h 48m
Waxing Crescent, 13% of the Moon is Illuminated
Aug 29
Waxing Crescent
Sep 2
First Quarter
Sep 9
Full
Sep 16
Last Quarter
Sep 24
New

Hourly Weather History & Observations

Time (EEST) Temp. Dew Point Humidity Pressure Visibility Wind Dir Wind Speed Gust Speed Precip Events Conditions
12:00 AM 73.4 °F 41.0 °F 31% 30.06 in - NNW 5.8 mph - N/A   Clear
1:00 AM 69.8 °F 42.8 °F 38% 30.06 in - Calm Calm - N/A   Clear
2:00 AM 66.2 °F 42.8 °F 43% 30.06 in - Calm Calm - N/A   Clear
3:00 AM 66.2 °F 41.0 °F 40% 30.06 in - Calm Calm - N/A   Clear
4:00 AM 66.2 °F 41.0 °F 40% 30.06 in - Calm Calm - N/A   Clear
5:00 AM 68.0 °F 42.8 °F 40% 30.04 in - Calm Calm - N/A   Clear
6:00 AM 64.4 °F 41.0 °F 42% 30.04 in - Calm Calm - N/A   Clear
7:00 AM 66.2 °F 44.6 °F 46% 30.09 in - Calm Calm - N/A   Clear
8:00 AM 69.8 °F 42.8 °F 38% 30.09 in - Calm Calm - N/A   Clear
9:00 AM 77.0 °F 39.2 °F 26% 30.09 in - Calm Calm - N/A   Clear
10:00 AM 80.6 °F 35.6 °F 20% 30.09 in - Calm Calm - N/A   Clear
11:00 AM 80.6 °F 39.2 °F 23% 30.06 in - WNW 13.8 mph - N/A   Clear
12:00 PM 86.0 °F 26.6 °F 12% 30.06 in - NNW 13.8 mph - N/A   Clear
1:00 PM 87.8 °F 28.4 °F 12% 30.06 in - NNW 12.7 mph - N/A   Clear
2:00 PM 91.4 °F 26.6 °F 10% 30.06 in - North 8.1 mph - N/A   Clear
3:00 PM 91.4 °F 26.6 °F 10% 30.06 in - NNW 16.1 mph - N/A   Clear
4:00 PM 91.4 °F 26.6 °F 10% 30.06 in - NNW 18.4 mph - N/A   Clear
5:00 PM 91.4 °F 28.4 °F 10% 30.09 in - WNW 16.1 mph - N/A   Clear
6:00 PM 89.6 °F 32.0 °F 13% 30.06 in - WNW 13.8 mph - N/A   Clear
7:00 PM 86.0 °F 39.2 °F 19% 30.06 in - North 16.1 mph - N/A   Clear
8:00 PM 84.2 °F 39.2 °F 20% 30.06 in - North 12.7 mph - N/A   Clear
9:00 PM 78.8 °F 42.8 °F 28% 30.06 in - ENE 16.1 mph - N/A   Clear
10:00 PM 77.0 °F 44.6 °F 32% 30.09 in - ENE 8.1 mph - N/A   Clear
11:00 PM 75.2 °F 48.2 °F 38% 30.09 in - NNE 5.8 mph - N/A   Clear